Fisterra (A Coruña), Galicia

latitud = 42° 55' 29''N | longitud = 009° 17' 29''W
230 metros sobre el nivel del mar | datos mensuales

Fecha, hora, temperatura, viento dirección y velocidad, humedad y presión.

  • 25-09-2017 00:00:00 | 16.10°C | Oeste |13.00 km/h | 95.00% | 994.70 hPa
  • 24-09-2017 23:00:00 | 14.90°C | Sur |13.00 km/h | 95.00% | 994.40 hPa
  • 24-09-2017 22:00:00 | 14.60°C | Sudoeste |21.00 km/h | 95.00% | 994.00 hPa
  • 24-09-2017 21:00:00 | 15.10°C | Sudoeste |28.00 km/h | 95.00% | 993.30 hPa
  • 24-09-2017 20:00:00 | 14.90°C | Sur |18.00 km/h | 95.00% | 993.00 hPa
  • 24-09-2017 19:00:00 | 15.30°C | Sudeste |14.00 km/h | 95.00% | 993.10 hPa
  • 24-09-2017 18:00:00 | 14.50°C | Sur |18.00 km/h | 95.00% | 992.80 hPa
  • 24-09-2017 17:00:00 | 14.40°C | Sur |16.00 km/h | 95.00% | 992.70 hPa
  • 24-09-2017 16:00:00 | 14.20°C | Sur |21.00 km/h | 95.00% | 992.50 hPa
  • 24-09-2017 15:00:00 | 14.20°C | Sur |23.00 km/h | 95.00% | 992.00 hPa
  • 24-09-2017 14:00:00 | 13.70°C | Sur |28.00 km/h | 95.00% | 991.90 hPa
  • 24-09-2017 13:00:00 | 13.40°C | Sur |33.00 km/h | 95.00% | 991.50 hPa
  • 24-09-2017 12:00:00 | 13.60°C | Sur |41.00 km/h | 94.00% | 991.10 hPa
  • 24-09-2017 11:00:00 | 13.40°C | Sur |39.00 km/h | 94.00% | 991.10 hPa
  • 24-09-2017 10:00:00 | 13.50°C | Sur |38.00 km/h | 91.00% | 990.50 hPa
  • 24-09-2017 09:00:00 | 13.80°C | Sur |35.00 km/h | 89.00% | 990.40 hPa
  • 24-09-2017 08:00:00 | 14.10°C | Sur |37.00 km/h | 88.00% | 990.10 hPa
  • 24-09-2017 07:00:00 | 14.10°C | Sur |36.00 km/h | 90.00% | 990.20 hPa
  • 24-09-2017 06:00:00 | 14.00°C | Sur |38.00 km/h | 92.00% | 990.40 hPa
  • 24-09-2017 05:00:00 | 13.90°C | Sur |34.00 km/h | 93.00% | 990.70 hPa
  • 24-09-2017 04:00:00 | 13.90°C | Sur |33.00 km/h | 94.00% | 991.10 hPa
  • 24-09-2017 03:00:00 | 14.10°C | Sur |32.00 km/h | 93.00% | 991.60 hPa
  • 24-09-2017 02:00:00 | 14.10°C | Sur |31.00 km/h | 93.00% | 991.70 hPa
  • 24-09-2017 01:00:00 | 14.10°C | Sur |32.00 km/h | 92.00% | 991.90 hPa